2017,07,02,00,00,00,183.8,,,,,,,,,,,,,,
2017,07,02,00,01,00,193.2,,,,,,,,,,,,,,
2017,07,02,00,02,00,200.1,,,,,,,,,,,,,,
2017,07,02,00,03,00,208.5,,,,,,,,,,,,,,
2017,07,02,00,04,00,205.7,,,,,,,,,,,,,,
2017,07,02,00,05,00,205.1,,,,,,,,,,,,,,
2017,07,02,00,06,00,208.4,,,,,,,,,,,,,,
2017,07,02,00,07,00,215.0,,,,,,,,,,,,,,
2017,07,02,00,08,00,241.3,,,,,,,,,,,,,,
2017,07,02,00,09,00,253.4,,,,,,,,,,,,,,
2017,07,02,00,10,00,256.3,,,,,,,,,,,,,,
2017,07,02,00,11,00,250.9,,,,,,,,,,,,,,
2017,07,02,00,12,00,250.8,,,,,,,,,,,,,,
2017,07,02,00,13,00,216.9,,,,,,,,,,,,,,
2017,07,02,00,14,00,219.0,,,,,,,,,,,,,,
2017,07,02,00,15,00,210.4,,,,,,,,,,,,,,
2017,07,02,00,16,00,216.0,,,,,,,,,,,,,,
2017,07,02,00,17,00,233.5,,,,,,,,,,,,,,
2017,07,02,00,18,00,241.3,,,,,,,,,,,,,,
2017,07,02,00,19,00,240.6,,,,,,,,,,,,,,
2017,07,02,00,20,00,230.2,,,,,,,,,,,,,,
2017,07,02,00,21,00,206.6,,,,,,,,,,,,,,
2017,07,02,00,22,00,207.1,,,,,,,,,,,,,,
2017,07,02,00,23,00,215.2,,,,,,,,,,,,,,
2017,07,02,00,24,00,227.7,,,,,,,,,,,,,,
2017,07,02,00,25,00,193.5,,,,,,,,,,,,,,
2017,07,02,00,26,00,183.9,,,,,,,,,,,,,,
2017,07,02,00,27,00,178.1,,,,,,,,,,,,,,
2017,07,02,00,28,00,183.8,,,,,,,,,,,,,,
2017,07,02,00,29,00,196.6,,,,,,,,,,,,,,
2017,07,02,00,30,00,207.8,,,,,,,,,,,,,,
2017,07,02,00,31,00,205.6,,,,,,,,,,,,,,
2017,07,02,00,32,00,202.3,,,,,,,,,,,,,,
2017,07,02,00,33,00,211.7,,,,,,,,,,,,,,
2017,07,02,00,34,00,224.7,,,,,,,,,,,,,,
2017,07,02,00,35,00,245.3,,,,,,,,,,,,,,
2017,07,02,00,36,00,234.2,,,,,,,,,,,,,,
2017,07,02,00,37,00,193.9,,,,,,,,,,,,,,
2017,07,02,00,38,00,195.8,,,,,,,,,,,,,,
2017,07,02,00,39,00,197.5,,,,,,,,,,,,,,
2017,07,02,00,40,00,189.0,,,,,,,,,,,,,,
2017,07,02,00,41,00,210.3,,,,,,,,,,,,,,
2017,07,02,00,42,00,291.8,,,,,,,,,,,,,,
2017,07,02,00,43,00,296.2,,,,,,,,,,,,,,
2017,07,02,00,44,00,294.0,,,,,,,,,,,,,,
2017,07,02,00,45,00,255.0,,,,,,,,,,,,,,
2017,07,02,00,46,00,243.3,,,,,,,,,,,,,,
2017,07,02,00,47,00,240.2,,,,,,,,,,,,,,
2017,07,02,00,48,00,219.9,,,,,,,,,,,,,,
2017,07,02,00,49,00,197.4,,,,,,,,,,,,,,
2017,07,02,00,50,00,195.9,,,,,,,,,,,,,,
2017,07,02,00,51,00,205.5,,,,,,,,,,,,,,
2017,07,02,00,52,00,183.0,,,,,,,,,,,,,,
2017,07,02,00,53,00,172.5,,,,,,,,,,,,,,
2017,07,02,00,54,00,177.2,,,,,,,,,,,,,,
2017,07,02,00,55,00,191.4,,,,,,,,,,,,,,
2017,07,02,00,56,00,195.0,,,,,,,,,,,,,,
2017,07,02,00,57,00,208.2,,,,,,,,,,,,,,
2017,07,02,00,58,00,201.8,,,,,,,,,,,,,,
2017,07,02,00,59,00,190.1,,,,,,,,,,,,,,
2017,07,02,01,00,00,169.4,,,,,,,,,,,,,,
2017,07,02,01,01,00,167.4,,,,,,,,,,,,,,
2017,07,02,01,02,00,179.0,,,,,,,,,,,,,,
2017,07,02,01,03,00,186.6,,,,,,,,,,,,,,
2017,07,02,01,04,00,193.9,,,,,,,,,,,,,,
2017,07,02,01,05,00,189.0,,,,,,,,,,,,,,
2017,07,02,01,06,00,180.6,,,,,,,,,,,,,,
2017,07,02,01,07,00,184.5,,,,,,,,,,,,,,
2017,07,02,01,08,00,189.3,,,,,,,,,,,,,,
2017,07,02,01,09,00,195.7,,,,,,,,,,,,,,
2017,07,02,01,10,00,211.8,,,,,,,,,,,,,,
2017,07,02,01,11,00,198.7,,,,,,,,,,,,,,
2017,07,02,01,12,00,205.7,,,,,,,,,,,,,,
2017,07,02,01,13,00,211.0,,,,,,,,,,,,,,
2017,07,02,01,14,00,196.7,,,,,,,,,,,,,,
2017,07,02,01,15,00,195.8,,,,,,,,,,,,,,
2017,07,02,01,16,00,194.7,,,,,,,,,,,,,,
2017,07,02,01,17,00,192.9,,,,,,,,,,,,,,
2017,07,02,01,18,00,201.7,,,,,,,,,,,,,,
2017,07,02,01,19,00,221.8,,,,,,,,,,,,,,
2017,07,02,01,20,00,214.2,,,,,,,,,,,,,,
2017,07,02,01,21,00,215.9,,,,,,,,,,,,,,
2017,07,02,01,22,00,213.6,,,,,,,,,,,,,,
2017,07,02,01,23,00,207.8,,,,,,,,,,,,,,
2017,07,02,01,24,00,208.2,,,,,,,,,,,,,,
2017,07,02,01,25,00,190.0,,,,,,,,,,,,,,
2017,07,02,01,26,00,184.1,,,,,,,,,,,,,,
2017,07,02,01,27,00,185.6,,,,,,,,,,,,,,
2017,07,02,01,28,00,212.3,,,,,,,,,,,,,,
2017,07,02,01,29,00,224.6,,,,,,,,,,,,,,
2017,07,02,01,30,00,237.8,,,,,,,,,,,,,,
2017,07,02,01,31,00,250.0,,,,,,,,,,,,,,
2017,07,02,01,32,00,255.1,,,,,,,,,,,,,,
2017,07,02,01,33,00,252.2,,,,,,,,,,,,,,
2017,07,02,01,34,00,245.9,,,,,,,,,,,,,,
2017,07,02,01,35,00,202.7,,,,,,,,,,,,,,
2017,07,02,01,36,00,209.4,,,,,,,,,,,,,,
2017,07,02,01,37,00,179.6,,,,,,,,,,,,,,
2017,07,02,01,38,00,167.7,,,,,,,,,,,,,,
2017,07,02,01,39,00,167.3,,,,,,,,,,,,,,
2017,07,02,01,40,00,175.9,,,,,,,,,,,,,,
2017,07,02,01,41,00,167.4,,,,,,,,,,,,,,
2017,07,02,01,42,00,166.1,,,,,,,,,,,,,,
2017,07,02,01,43,00,168.5,,,,,,,,,,,,,,
2017,07,02,01,44,00,190.8,,,,,,,,,,,,,,
2017,07,02,01,45,00,198.5,,,,,,,,,,,,,,
2017,07,02,01,46,00,183.6,,,,,,,,,,,,,,
2017,07,02,01,47,00,169.7,,,,,,,,,,,,,,
2017,07,02,01,48,00,176.0,,,,,,,,,,,,,,
2017,07,02,01,49,00,168.5,,,,,,,,,,,,,,
2017,07,02,01,50,00,176.7,,,,,,,,,,,,,,
2017,07,02,01,51,00,198.2,,,,,,,,,,,,,,
2017,07,02,01,52,00,219.9,,,,,,,,,,,,,,
2017,07,02,01,53,00,215.8,,,,,,,,,,,,,,
2017,07,02,01,54,00,194.0,,,,,,,,,,,,,,
2017,07,02,01,55,00,189.1,,,,,,,,,,,,,,
2017,07,02,01,56,00,189.8,,,,,,,,,,,,,,
2017,07,02,01,57,00,194.7,,,,,,,,,,,,,,
2017,07,02,01,58,00,201.7,,,,,,,,,,,,,,
2017,07,02,01,59,00,204.3,,,,,,,,,,,,,,
2017,07,02,02,00,00,180.4,,,,,,,,,,,,,,
2017,07,02,02,01,00,166.2,,,,,,,,,,,,,,
2017,07,02,02,02,00,167.3,,,,,,,,,,,,,,
2017,07,02,02,03,00,169.6,,,,,,,,,,,,,,
2017,07,02,02,04,00,166.7,,,,,,,,,,,,,,
2017,07,02,02,05,00,165.0,,,,,,,,,,,,,,
2017,07,02,02,06,00,165.8,,,,,,,,,,,,,,
2017,07,02,02,07,00,167.2,,,,,,,,,,,,,,
2017,07,02,02,08,00,161.8,,,,,,,,,,,,,,
2017,07,02,02,09,00,170.5,,,,,,,,,,,,,,
2017,07,02,02,10,00,172.2,,,,,,,,,,,,,,
2017,07,02,02,11,00,171.9,,,,,,,,,,,,,,
2017,07,02,02,12,00,165.7,,,,,,,,,,,,,,
2017,07,02,02,13,00,165.5,,,,,,,,,,,,,,
2017,07,02,02,14,00,166.5,,,,,,,,,,,,,,
2017,07,02,02,15,00,169.9,,,,,,,,,,,,,,
2017,07,02,02,16,00,174.4,,,,,,,,,,,,,,
2017,07,02,02,17,00,193.4,,,,,,,,,,,,,,
2017,07,02,02,18,00,191.5,,,,,,,,,,,,,,
2017,07,02,02,19,00,165.6,,,,,,,,,,,,,,
2017,07,02,02,20,00,163.7,,,,,,,,,,,,,,
2017,07,02,02,21,00,169.7,,,,,,,,,,,,,,
2017,07,02,02,22,00,169.3,,,,,,,,,,,,,,
2017,07,02,02,23,00,188.1,,,,,,,,,,,,,,
2017,07,02,02,24,00,179.8,,,,,,,,,,,,,,
2017,07,02,02,25,00,178.4,,,,,,,,,,,,,,
2017,07,02,02,26,00,173.1,,,,,,,,,,,,,,
2017,07,02,02,27,00,167.8,,,,,,,,,,,,,,
2017,07,02,02,28,00,164.7,,,,,,,,,,,,,,
2017,07,02,02,29,00,174.2,,,,,,,,,,,,,,
2017,07,02,02,30,00,195.7,,,,,,,,,,,,,,
2017,07,02,02,31,00,206.5,,,,,,,,,,,,,,
2017,07,02,02,32,00,201.1,,,,,,,,,,,,,,
2017,07,02,02,33,00,200.1,,,,,,,,,,,,,,
2017,07,02,02,34,00,190.9,,,,,,,,,,,,,,
2017,07,02,02,35,00,173.8,,,,,,,,,,,,,,
2017,07,02,02,36,00,169.9,,,,,,,,,,,,,,
2017,07,02,02,37,00,162.6,,,,,,,,,,,,,,
2017,07,02,02,38,00,171.5,,,,,,,,,,,,,,
2017,07,02,02,39,00,182.0,,,,,,,,,,,,,,
2017,07,02,02,40,00,175.8,,,,,,,,,,,,,,
2017,07,02,02,41,00,182.3,,,,,,,,,,,,,,
2017,07,02,02,42,00,172.7,,,,,,,,,,,,,,
2017,07,02,02,43,00,172.3,,,,,,,,,,,,,,
2017,07,02,02,44,00,188.1,,,,,,,,,,,,,,
2017,07,02,02,45,00,205.9,,,,,,,,,,,,,,
2017,07,02,02,46,00,220.3,,,,,,,,,,,,,,
2017,07,02,02,47,00,202.2,,,,,,,,,,,,,,
2017,07,02,02,48,00,208.7,,,,,,,,,,,,,,
2017,07,02,02,49,00,201.8,,,,,,,,,,,,,,
2017,07,02,02,50,00,193.7,,,,,,,,,,,,,,
2017,07,02,02,51,00,203.9,,,,,,,,,,,,,,
2017,07,02,02,52,00,230.9,,,,,,,,,,,,,,
2017,07,02,02,53,00,225.4,,,,,,,,,,,,,,
2017,07,02,02,54,00,193.9,,,,,,,,,,,,,,
2017,07,02,02,55,00,188.1,,,,,,,,,,,,,,
2017,07,02,02,56,00,173.6,,,,,,,,,,,,,,
2017,07,02,02,57,00,171.4,,,,,,,,,,,,,,
2017,07,02,02,58,00,186.9,,,,,,,,,,,,,,
2017,07,02,02,59,00,220.9,,,,,,,,,,,,,,
2017,07,02,03,00,00,220.1,,,,,,,,,,,,,,
2017,07,02,03,01,00,185.1,,,,,,,,,,,,,,
2017,07,02,03,02,00,171.2,,,,,,,,,,,,,,
2017,07,02,03,03,00,177.1,,,,,,,,,,,,,,
2017,07,02,03,04,00,191.0,,,,,,,,,,,,,,
2017,07,02,03,05,00,190.9,,,,,,,,,,,,,,
2017,07,02,03,06,00,181.0,,,,,,,,,,,,,,
2017,07,02,03,07,00,173.6,,,,,,,,,,,,,,
2017,07,02,03,08,00,180.8,,,,,,,,,,,,,,
2017,07,02,03,09,00,196.2,,,,,,,,,,,,,,
2017,07,02,03,10,00,215.2,,,,,,,,,,,,,,
2017,07,02,03,11,00,229.3,,,,,,,,,,,,,,
2017,07,02,03,12,00,206.4,,,,,,,,,,,,,,
2017,07,02,03,13,00,192.9,,,,,,,,,,,,,,
2017,07,02,03,14,00,210.2,,,,,,,,,,,,,,
2017,07,02,03,15,00,197.2,,,,,,,,,,,,,,
2017,07,02,03,16,00,191.1,,,,,,,,,,,,,,
2017,07,02,03,17,00,181.4,,,,,,,,,,,,,,
2017,07,02,03,18,00,202.8,,,,,,,,,,,,,,
2017,07,02,03,19,00,198.0,,,,,,,,,,,,,,
2017,07,02,03,20,00,185.1,,,,,,,,,,,,,,
2017,07,02,03,21,00,184.2,,,,,,,,,,,,,,
2017,07,02,03,22,00,214.4,,,,,,,,,,,,,,
2017,07,02,03,23,00,211.4,,,,,,,,,,,,,,
2017,07,02,03,24,00,204.2,,,,,,,,,,,,,,
2017,07,02,03,25,00,219.9,,,,,,,,,,,,,,
2017,07,02,03,26,00,227.4,,,,,,,,,,,,,,
2017,07,02,03,27,00,216.9,,,,,,,,,,,,,,
2017,07,02,03,28,00,242.3,,,,,,,,,,,,,,
2017,07,02,03,29,00,219.9,,,,,,,,,,,,,,
2017,07,02,03,30,00,196.8,,,,,,,,,,,,,,
2017,07,02,03,31,00,196.0,,,,,,,,,,,,,,
2017,07,02,03,32,00,209.1,,,,,,,,,,,,,,
2017,07,02,03,33,00,224.4,,,,,,,,,,,,,,
2017,07,02,03,34,00,249.7,,,,,,,,,,,,,,
2017,07,02,03,35,00,285.8,,,,,,,,,,,,,,
2017,07,02,03,36,00,256.7,,,,,,,,,,,,,,
2017,07,02,03,37,00,277.3,,,,,,,,,,,,,,
2017,07,02,03,38,00,253.8,,,,,,,,,,,,,,
2017,07,02,03,39,00,252.2,,,,,,,,,,,,,,
2017,07,02,03,40,00,235.7,,,,,,,,,,,,,,
2017,07,02,03,41,00,228.4,,,,,,,,,,,,,,
2017,07,02,03,42,00,243.8,,,,,,,,,,,,,,
2017,07,02,03,43,00,229.6,,,,,,,,,,,,,,
2017,07,02,03,44,00,233.1,,,,,,,,,,,,,,
2017,07,02,03,45,00,260.7,,,,,,,,,,,,,,
2017,07,02,03,46,00,248.1,,,,,,,,,,,,,,
2017,07,02,03,47,00,216.5,,,,,,,,,,,,,,
2017,07,02,03,48,00,207.9,,,,,,,,,,,,,,
2017,07,02,03,49,00,185.5,,,,,,,,,,,,,,
2017,07,02,03,50,00,191.1,,,,,,,,,,,,,,
2017,07,02,03,51,00,202.0,,,,,,,,,,,,,,
2017,07,02,03,52,00,210.7,,,,,,,,,,,,,,
2017,07,02,03,53,00,244.4,,,,,,,,,,,,,,
2017,07,02,03,54,00,238.6,,,,,,,,,,,,,,
2017,07,02,03,55,00,203.8,,,,,,,,,,,,,,
2017,07,02,03,56,00,200.4,,,,,,,,,,,,,,
2017,07,02,03,57,00,197.5,,,,,,,,,,,,,,
2017,07,02,03,58,00,199.9,,,,,,,,,,,,,,
2017,07,02,03,59,00,229.6,,,,,,,,,,,,,,
2017,07,02,04,00,00,252.9,,,,,,,,,,,,,,
2017,07,02,04,01,00,254.4,,,,,,,,,,,,,,
2017,07,02,04,02,00,235.9,,,,,,,,,,,,,,
2017,07,02,04,03,00,216.7,,,,,,,,,,,,,,
2017,07,02,04,04,00,231.9,,,,,,,,,,,,,,
2017,07,02,04,05,00,227.3,,,,,,,,,,,,,,
2017,07,02,04,06,00,236.6,,,,,,,,,,,,,,
2017,07,02,04,07,00,254.8,,,,,,,,,,,,,,
2017,07,02,04,08,00,276.4,,,,,,,,,,,,,,
2017,07,02,04,09,00,314.7,,,,,,,,,,,,,,
2017,07,02,04,10,00,305.9,,,,,,,,,,,,,,
2017,07,02,04,11,00,296.5,,,,,,,,,,,,,,
2017,07,02,04,12,00,280.0,,,,,,,,,,,,,,
2017,07,02,04,13,00,274.3,,,,,,,,,,,,,,
2017,07,02,04,14,00,283.2,,,,,,,,,,,,,,
2017,07,02,04,15,00,308.3,,,,,,,,,,,,,,
2017,07,02,04,16,00,331.4,,,,,,,,,,,,,,
2017,07,02,04,17,00,334.1,,,,,,,,,,,,,,
2017,07,02,04,18,00,312.6,,,,,,,,,,,,,,
2017,07,02,04,19,00,291.6,,,,,,,,,,,,,,
2017,07,02,04,20,00,257.2,,,,,,,,,,,,,,
2017,07,02,04,21,00,251.6,,,,,,,,,,,,,,
2017,07,02,04,22,00,253.5,,,,,,,,,,,,,,
2017,07,02,04,23,00,254.9,,,,,,,,,,,,,,
2017,07,02,04,24,00,253.8,,,,,,,,,,,,,,
2017,07,02,04,25,00,254.0,,,,,,,,,,,,,,
2017,07,02,04,26,00,243.2,,,,,,,,,,,,,,
2017,07,02,04,27,00,220.9,,,,,,,,,,,,,,
2017,07,02,04,28,00,216.2,,,,,,,,,,,,,,
2017,07,02,04,29,00,259.9,,,,,,,,,,,,,,
2017,07,02,04,30,00,314.6,,,,,,,,,,,,,,
2017,07,02,04,31,00,319.9,,,,,,,,,,,,,,
2017,07,02,04,32,00,307.8,,,,,,,,,,,,,,
2017,07,02,04,33,00,278.5,,,,,,,,,,,,,,
2017,07,02,04,34,00,246.3,,,,,,,,,,,,,,
2017,07,02,04,35,00,255.0,,,,,,,,,,,,,,
2017,07,02,04,36,00,271.1,,,,,,,,,,,,,,
2017,07,02,04,37,00,271.3,,,,,,,,,,,,,,
2017,07,02,04,38,00,279.2,,,,,,,,,,,,,,
2017,07,02,04,39,00,284.1,,,,,,,,,,,,,,
2017,07,02,04,40,00,249.8,,,,,,,,,,,,,,
2017,07,02,04,41,00,231.8,,,,,,,,,,,,,,
2017,07,02,04,42,00,231.1,,,,,,,,,,,,,,
2017,07,02,04,43,00,245.3,,,,,,,,,,,,,,
2017,07,02,04,44,00,255.2,,,,,,,,,,,,,,
2017,07,02,04,45,00,243.9,,,,,,,,,,,,,,
2017,07,02,04,46,00,245.5,,,,,,,,,,,,,,
2017,07,02,04,47,00,236.7,,,,,,,,,,,,,,
2017,07,02,04,48,00,229.7,,,,,,,,,,,,,,
2017,07,02,04,49,00,241.6,,,,,,,,,,,,,,
2017,07,02,04,50,00,249.5,,,,,,,,,,,,,,
2017,07,02,04,51,00,242.4,,,,,,,,,,,,,,
2017,07,02,04,52,00,235.1,,,,,,,,,,,,,,
2017,07,02,04,53,00,240.7,,,,,,,,,,,,,,
2017,07,02,04,54,00,241.7,,,,,,,,,,,,,,
2017,07,02,04,55,00,282.0,,,,,,,,,,,,,,
2017,07,02,04,56,00,274.2,,,,,,,,,,,,,,
2017,07,02,04,57,00,239.5,,,,,,,,,,,,,,
2017,07,02,04,58,00,245.3,,,,,,,,,,,,,,
2017,07,02,04,59,00,258.0,,,,,,,,,,,,,,
2017,07,02,05,00,00,277.4,,,,,,,,,,,,,,
2017,07,02,05,01,00,258.9,,,,,,,,,,,,,,
2017,07,02,05,02,00,272.5,,,,,,,,,,,,,,
2017,07,02,05,03,00,247.8,,,,,,,,,,,,,,
2017,07,02,05,04,00,243.6,,,,,,,,,,,,,,
2017,07,02,05,05,00,229.8,,,,,,,,,,,,,,
2017,07,02,05,06,00,232.2,,,,,,,,,,,,,,
2017,07,02,05,07,00,244.7,,,,,,,,,,,,,,
2017,07,02,05,08,00,292.6,,,,,,,,,,,,,,
2017,07,02,05,09,00,345.6,,,,,,,,,,,,,,
2017,07,02,05,10,00,364.7,,,,,,,,,,,,,,
2017,07,02,05,11,00,317.2,,,,,,,,,,,,,,
2017,07,02,05,12,00,273.8,,,,,,,,,,,,,,
2017,07,02,05,13,00,259.0,,,,,,,,,,,,,,
2017,07,02,05,14,00,279.9,,,,,,,,,,,,,,
2017,07,02,05,15,00,312.1,,,,,,,,,,,,,,
2017,07,02,05,16,00,257.9,,,,,,,,,,,,,,
2017,07,02,05,17,00,255.3,,,,,,,,,,,,,,
2017,07,02,05,18,00,285.7,,,,,,,,,,,,,,
2017,07,02,05,19,00,268.1,,,,,,,,,,,,,,
2017,07,02,05,20,00,283.8,,,,,,,,,,,,,,
2017,07,02,05,21,00,280.4,,,,,,,,,,,,,,
2017,07,02,05,22,00,275.9,,,,,,,,,,,,,,
2017,07,02,05,23,00,253.1,,,,,,,,,,,,,,
2017,07,02,05,24,00,257.3,,,,,,,,,,,,,,
2017,07,02,05,25,00,265.6,,,,,,,,,,,,,,
2017,07,02,05,26,00,288.3,,,,,,,,,,,,,,
2017,07,02,05,27,00,274.6,,,,,,,,,,,,,,
2017,07,02,05,28,00,287.6,,,,,,,,,,,,,,
2017,07,02,05,29,00,274.9,,,,,,,,,,,,,,
2017,07,02,05,30,00,274.8,,,,,,,,,,,,,,
2017,07,02,05,31,00,271.3,,,,,,,,,,,,,,
2017,07,02,05,32,00,247.5,,,,,,,,,,,,,,
2017,07,02,05,33,00,286.3,,,,,,,,,,,,,,
2017,07,02,05,34,00,283.2,,,,,,,,,,,,,,
2017,07,02,05,35,00,261.3,,,,,,,,,,,,,,
2017,07,02,05,36,00,251.6,,,,,,,,,,,,,,
2017,07,02,05,37,00,282.9,,,,,,,,,,,,,,
2017,07,02,05,38,00,291.9,,,,,,,,,,,,,,
2017,07,02,05,39,00,292.3,,,,,,,,,,,,,,
2017,07,02,05,40,00,278.1,,,,,,,,,,,,,,
2017,07,02,05,41,00,315.0,,,,,,,,,,,,,,
2017,07,02,05,42,00,353.6,,,,,,,,,,,,,,
2017,07,02,05,43,00,353.7,,,,,,,,,,,,,,
2017,07,02,05,44,00,319.5,,,,,,,,,,,,,,
2017,07,02,05,45,00,337.5,,,,,,,,,,,,,,
2017,07,02,05,46,00,328.8,,,,,,,,,,,,,,
2017,07,02,05,47,00,315.8,,,,,,,,,,,,,,
2017,07,02,05,48,00,290.8,,,,,,,,,,,,,,
2017,07,02,05,49,00,289.3,,,,,,,,,,,,,,
2017,07,02,05,50,00,290.8,,,,,,,,,,,,,,
2017,07,02,05,51,00,293.3,,,,,,,,,,,,,,
2017,07,02,05,52,00,288.2,,,,,,,,,,,,,,
2017,07,02,05,53,00,289.0,,,,,,,,,,,,,,
2017,07,02,05,54,00,292.5,,,,,,,,,,,,,,
2017,07,02,05,55,00,294.4,,,,,,,,,,,,,,
2017,07,02,05,56,00,288.1,,,,,,,,,,,,,,
2017,07,02,05,57,00,285.4,,,,,,,,,,,,,,
2017,07,02,05,58,00,298.1,,,,,,,,,,,,,,
2017,07,02,05,59,00,310.1,,,,,,,,,,,,,,
2017,07,02,06,00,00,338.5,,,,,,,,,,,,,,
2017,07,02,06,01,00,301.9,,,,,,,,,,,,,,
2017,07,02,06,02,00,301.6,,,,,,,,,,,,,,
2017,07,02,06,03,00,322.0,,,,,,,,,,,,,,
2017,07,02,06,04,00,321.0,,,,,,,,,,,,,,
2017,07,02,06,05,00,308.4,,,,,,,,,,,,,,
2017,07,02,06,06,00,291.3,,,,,,,,,,,,,,
2017,07,02,06,07,00,297.6,,,,,,,,,,,,,,
2017,07,02,06,08,00,291.2,,,,,,,,,,,,,,
2017,07,02,06,09,00,282.7,,,,,,,,,,,,,,
2017,07,02,06,10,00,282.5,,,,,,,,,,,,,,
2017,07,02,06,11,00,260.6,,,,,,,,,,,,,,
2017,07,02,06,12,00,272.7,,,,,,,,,,,,,,
2017,07,02,06,13,00,273.7,,,,,,,,,,,,,,
2017,07,02,06,14,00,317.8,,,,,,,,,,,,,,
2017,07,02,06,15,00,330.4,,,,,,,,,,,,,,
2017,07,02,06,16,00,309.2,,,,,,,,,,,,,,
2017,07,02,06,17,00,295.5,,,,,,,,,,,,,,
2017,07,02,06,18,00,292.9,,,,,,,,,,,,,,
2017,07,02,06,19,00,307.5,,,,,,,,,,,,,,
2017,07,02,06,20,00,358.0,,,,,,,,,,,,,,
2017,07,02,06,21,00,335.4,,,,,,,,,,,,,,
2017,07,02,06,22,00,305.3,,,,,,,,,,,,,,
2017,07,02,06,23,00,339.6,,,,,,,,,,,,,,
2017,07,02,06,24,00,391.4,,,,,,,,,,,,,,
2017,07,02,06,25,00,398.9,,,,,,,,,,,,,,
2017,07,02,06,26,00,381.7,,,,,,,,,,,,,,
2017,07,02,06,27,00,364.9,,,,,,,,,,,,,,
2017,07,02,06,28,00,356.9,,,,,,,,,,,,,,
2017,07,02,06,29,00,403.3,,,,,,,,,,,,,,
2017,07,02,06,30,00,423.6,,,,,,,,,,,,,,
2017,07,02,06,31,00,382.4,,,,,,,,,,,,,,
2017,07,02,06,32,00,338.0,,,,,,,,,,,,,,
2017,07,02,06,33,00,364.2,,,,,,,,,,,,,,
2017,07,02,06,34,00,372.8,,,,,,,,,,,,,,
2017,07,02,06,35,00,391.9,,,,,,,,,,,,,,
2017,07,02,06,36,00,408.5,,,,,,,,,,,,,,
2017,07,02,06,37,00,416.4,,,,,,,,,,,,,,
2017,07,02,06,38,00,481.3,,,,,,,,,,,,,,
2017,07,02,06,39,00,428.9,,,,,,,,,,,,,,
2017,07,02,06,40,00,390.0,,,,,,,,,,,,,,
2017,07,02,06,41,00,395.3,,,,,,,,,,,,,,
2017,07,02,06,42,00,428.0,,,,,,,,,,,,,,
2017,07,02,06,43,00,424.9,,,,,,,,,,,,,,
2017,07,02,06,44,00,430.7,,,,,,,,,,,,,,
2017,07,02,06,45,00,421.4,,,,,,,,,,,,,,
2017,07,02,06,46,00,419.4,,,,,,,,,,,,,,
2017,07,02,06,47,00,439.1,,,,,,,,,,,,,,
2017,07,02,06,48,00,406.8,,,,,,,,,,,,,,
2017,07,02,06,49,00,449.8,,,,,,,,,,,,,,
2017,07,02,06,50,00,426.0,,,,,,,,,,,,,,
2017,07,02,06,51,00,417.9,,,,,,,,,,,,,,
2017,07,02,06,52,00,427.0,,,,,,,,,,,,,,
2017,07,02,06,53,00,424.5,,,,,,,,,,,,,,
2017,07,02,06,54,00,370.7,,,,,,,,,,,,,,
2017,07,02,06,55,00,342.8,,,,,,,,,,,,,,
2017,07,02,06,56,00,379.5,,,,,,,,,,,,,,
2017,07,02,06,57,00,374.5,,,,,,,,,,,,,,
2017,07,02,06,58,00,393.5,,,,,,,,,,,,,,
2017,07,02,06,59,00,427.2,,,,,,,,,,,,,,
2017,07,02,07,00,00,461.0,,,,,,,,,,,,,,
2017,07,02,07,01,00,491.7,,,,,,,,,,,,,,
2017,07,02,07,02,00,504.5,,,,,,,,,,,,,,
2017,07,02,07,03,00,455.1,,,,,,,,,,,,,,
2017,07,02,07,04,00,418.5,,,,,,,,,,,,,,
2017,07,02,07,05,00,427.5,,,,,,,,,,,,,,
2017,07,02,07,06,00,433.9,,,,,,,,,,,,,,
2017,07,02,07,07,00,370.9,,,,,,,,,,,,,,
2017,07,02,07,08,00,387.0,,,,,,,,,,,,,,
2017,07,02,07,09,00,406.2,,,,,,,,,,,,,,
2017,07,02,07,10,00,440.9,,,,,,,,,,,,,,
2017,07,02,07,11,00,480.3,,,,,,,,,,,,,,
2017,07,02,07,12,00,462.3,,,,,,,,,,,,,,
2017,07,02,07,13,00,438.7,,,,,,,,,,,,,,
2017,07,02,07,14,00,404.4,,,,,,,,,,,,,,
2017,07,02,07,15,00,385.6,,,,,,,,,,,,,,
2017,07,02,07,16,00,330.8,,,,,,,,,,,,,,
2017,07,02,07,17,00,331.9,,,,,,,,,,,,,,
2017,07,02,07,18,00,373.4,,,,,,,,,,,,,,
2017,07,02,07,19,00,386.9,,,,,,,,,,,,,,
2017,07,02,07,20,00,368.2,,,,,,,,,,,,,,
2017,07,02,07,21,00,348.5,,,,,,,,,,,,,,
2017,07,02,07,22,00,338.9,,,,,,,,,,,,,,
2017,07,02,07,23,00,330.9,,,,,,,,,,,,,,
2017,07,02,07,24,00,322.3,,,,,,,,,,,,,,
2017,07,02,07,25,00,308.5,,,,,,,,,,,,,,
2017,07,02,07,26,00,341.3,,,,,,,,,,,,,,
2017,07,02,07,27,00,388.7,,,,,,,,,,,,,,
2017,07,02,07,28,00,402.8,,,,,,,,,,,,,,
2017,07,02,07,29,00,385.8,,,,,,,,,,,,,,
2017,07,02,07,30,00,369.5,,,,,,,,,,,,,,
2017,07,02,07,31,00,361.4,,,,,,,,,,,,,,
2017,07,02,07,32,00,306.5,,,,,,,,,,,,,,
2017,07,02,07,33,00,301.1,,,,,,,,,,,,,,
2017,07,02,07,34,00,336.9,,,,,,,,,,,,,,
2017,07,02,07,35,00,305.6,,,,,,,,,,,,,,
2017,07,02,07,36,00,282.1,,,,,,,,,,,,,,
2017,07,02,07,37,00,256.6,,,,,,,,,,,,,,
2017,07,02,07,38,00,283.6,,,,,,,,,,,,,,
2017,07,02,07,39,00,262.6,,,,,,,,,,,,,,
2017,07,02,07,40,00,303.4,,,,,,,,,,,,,,
2017,07,02,07,41,00,314.5,,,,,,,,,,,,,,
2017,07,02,07,42,00,297.2,,,,,,,,,,,,,,
2017,07,02,07,43,00,306.0,,,,,,,,,,,,,,
2017,07,02,07,44,00,346.7,,,,,,,,,,,,,,
2017,07,02,07,45,00,343.1,,,,,,,,,,,,,,
2017,07,02,07,46,00,316.5,,,,,,,,,,,,,,
2017,07,02,07,47,00,313.3,,,,,,,,,,,,,,
2017,07,02,07,48,00,332.2,,,,,,,,,,,,,,
2017,07,02,07,49,00,270.4,,,,,,,,,,,,,,
2017,07,02,07,50,00,269.2,,,,,,,,,,,,,,
2017,07,02,07,51,00,312.5,,,,,,,,,,,,,,
2017,07,02,07,52,00,298.2,,,,,,,,,,,,,,
2017,07,02,07,53,00,294.6,,,,,,,,,,,,,,
2017,07,02,07,54,00,243.9,,,,,,,,,,,,,,
2017,07,02,07,55,00,216.2,,,,,,,,,,,,,,
2017,07,02,07,56,00,201.1,,,,,,,,,,,,,,
2017,07,02,07,57,00,216.6,,,,,,,,,,,,,,
2017,07,02,07,58,00,258.5,,,,,,,,,,,,,,
2017,07,02,07,59,00,306.5,,,,,,,,,,,,,,
2017,07,02,08,00,00,326.8,,,,,,,,,,,,,,
2017,07,02,08,01,00,268.7,,,,,,,,,,,,,,
2017,07,02,08,02,00,272.2,,,,,,,,,,,,,,
2017,07,02,08,03,00,261.8,,,,,,,,,,,,,,
2017,07,02,08,04,00,244.5,,,,,,,,,,,,,,
2017,07,02,08,05,00,246.9,,,,,,,,,,,,,,
2017,07,02,08,06,00,240.3,,,,,,,,,,,,,,
2017,07,02,08,07,00,233.0,,,,,,,,,,,,,,
2017,07,02,08,08,00,247.7,,,,,,,,,,,,,,
2017,07,02,08,09,00,252.8,,,,,,,,,,,,,,
2017,07,02,08,10,00,222.1,,,,,,,,,,,,,,
2017,07,02,08,11,00,228.1,,,,,,,,,,,,,,
2017,07,02,08,12,00,200.1,,,,,,,,,,,,,,
2017,07,02,08,13,00,196.7,,,,,,,,,,,,,,
2017,07,02,08,14,00,178.6,,,,,,,,,,,,,,
2017,07,02,08,15,00,182.9,,,,,,,,,,,,,,
2017,07,02,08,16,00,193.0,,,,,,,,,,,,,,
2017,07,02,08,17,00,175.5,,,,,,,,,,,,,,
2017,07,02,08,18,00,187.0,,,,,,,,,,,,,,
2017,07,02,08,19,00,169.4,,,,,,,,,,,,,,
2017,07,02,08,20,00,175.1,,,,,,,,,,,,,,
2017,07,02,08,21,00,205.6,,,,,,,,,,,,,,
2017,07,02,08,22,00,215.5,,,,,,,,,,,,,,
2017,07,02,08,23,00,227.2,,,,,,,,,,,,,,
2017,07,02,08,24,00,243.3,,,,,,,,,,,,,,
2017,07,02,08,25,00,232.4,,,,,,,,,,,,,,
2017,07,02,08,26,00,220.6,,,,,,,,,,,,,,
2017,07,02,08,27,00,216.1,,,,,,,,,,,,,,
2017,07,02,08,28,00,199.2,,,,,,,,,,,,,,
2017,07,02,08,29,00,189.5,,,,,,,,,,,,,,
2017,07,02,08,30,00,201.7,,,,,,,,,,,,,,
2017,07,02,08,31,00,173.7,,,,,,,,,,,,,,
2017,07,02,08,32,00,164.0,,,,,,,,,,,,,,
2017,07,02,08,33,00,186.9,,,,,,,,,,,,,,
2017,07,02,08,34,00,220.3,,,,,,,,,,,,,,
2017,07,02,08,35,00,213.8,,,,,,,,,,,,,,
2017,07,02,08,36,00,196.0,,,,,,,,,,,,,,
2017,07,02,08,37,00,169.2,,,,,,,,,,,,,,
2017,07,02,08,38,00,154.2,,,,,,,,,,,,,,
2017,07,02,08,39,00,138.7,,,,,,,,,,,,,,
2017,07,02,08,40,00,133.8,,,,,,,,,,,,,,
2017,07,02,08,41,00,157.8,,,,,,,,,,,,,,
2017,07,02,08,42,00,140.5,,,,,,,,,,,,,,
2017,07,02,08,43,00,114.1,,,,,,,,,,,,,,
2017,07,02,08,44,00,101.6,,,,,,,,,,,,,,
2017,07,02,08,45,00,99.1,,,,,,,,,,,,,,
2017,07,02,08,46,00,93.0,,,,,,,,,,,,,,
2017,07,02,08,47,00,85.0,,,,,,,,,,,,,,
2017,07,02,08,48,00,64.7,,,,,,,,,,,,,,
2017,07,02,08,49,00,30.1,,,,,,,,,,,,,,
2017,07,02,08,50,00,-6.1,,,,,,,,,,,,,,
2017,07,02,08,51,00,-10.4,,,,,,,,,,,,,,
2017,07,02,08,52,00,-8.9,,,,,,,,,,,,,,
2017,07,02,08,53,00,-5.4,,,,,,,,,,,,,,
2017,07,02,08,54,00,26.6,,,,,,,,,,,,,,
2017,07,02,08,55,00,56.6,,,,,,,,,,,,,,
2017,07,02,08,56,00,75.3,,,,,,,,,,,,,,
2017,07,02,08,57,00,86.6,,,,,,,,,,,,,,
2017,07,02,08,58,00,79.3,,,,,,,,,,,,,,
2017,07,02,08,59,00,72.5,,,,,,,,,,,,,,
2017,07,02,09,00,00,42.4,,,,,,,,,,,,,,
2017,07,02,09,01,00,7.8,,,,,,,,,,,,,,
2017,07,02,09,02,00,-5.4,,,,,,,,,,,,,,
2017,07,02,09,03,00,6.4,,,,,,,,,,,,,,
2017,07,02,09,04,00,27.7,,,,,,,,,,,,,,
2017,07,02,09,05,00,35.8,,,,,,,,,,,,,,
2017,07,02,09,06,00,37.8,,,,,,,,,,,,,,
2017,07,02,09,07,00,53.0,,,,,,,,,,,,,,
2017,07,02,09,08,00,54.6,,,,,,,,,,,,,,
2017,07,02,09,09,00,60.2,,,,,,,,,,,,,,
2017,07,02,09,10,00,68.9,,,,,,,,,,,,,,
2017,07,02,09,11,00,79.1,,,,,,,,,,,,,,
2017,07,02,09,12,00,93.3,,,,,,,,,,,,,,
2017,07,02,09,13,00,114.2,,,,,,,,,,,,,,
2017,07,02,09,14,00,144.7,,,,,,,,,,,,,,
2017,07,02,09,15,00,153.7,,,,,,,,,,,,,,
2017,07,02,09,16,00,170.0,,,,,,,,,,,,,,
2017,07,02,09,17,00,168.7,,,,,,,,,,,,,,
2017,07,02,09,18,00,161.8,,,,,,,,,,,,,,
2017,07,02,09,19,00,158.1,,,,,,,,,,,,,,
2017,07,02,09,20,00,143.7,,,,,,,,,,,,,,
2017,07,02,09,21,00,129.8,,,,,,,,,,,,,,
2017,07,02,09,22,00,105.4,,,,,,,,,,,,,,
2017,07,02,09,23,00,84.2,,,,,,,,,,,,,,
2017,07,02,09,24,00,100.5,,,,,,,,,,,,,,
2017,07,02,09,25,00,133.5,,,,,,,,,,,,,,
2017,07,02,09,26,00,150.8,,,,,,,,,,,,,,
2017,07,02,09,27,00,165.6,,,,,,,,,,,,,,
2017,07,02,09,28,00,161.8,,,,,,,,,,,,,,
2017,07,02,09,29,00,185.3,,,,,,,,,,,,,,
2017,07,02,09,30,00,171.6,,,,,,,,,,,,,,
2017,07,02,09,31,00,148.6,,,,,,,,,,,,,,
2017,07,02,09,32,00,153.0,,,,,,,,,,,,,,
2017,07,02,09,33,00,179.3,,,,,,,,,,,,,,
2017,07,02,09,34,00,154.4,,,,,,,,,,,,,,
2017,07,02,09,35,00,128.7,,,,,,,,,,,,,,
2017,07,02,09,36,00,111.0,,,,,,,,,,,,,,
2017,07,02,09,37,00,88.5,,,,,,,,,,,,,,
2017,07,02,09,38,00,78.7,,,,,,,,,,,,,,
2017,07,02,09,39,00,72.8,,,,,,,,,,,,,,
2017,07,02,09,40,00,86.2,,,,,,,,,,,,,,
2017,07,02,09,41,00,81.8,,,,,,,,,,,,,,
2017,07,02,09,42,00,78.4,,,,,,,,,,,,,,
2017,07,02,09,43,00,69.4,,,,,,,,,,,,,,
2017,07,02,09,44,00,71.8,,,,,,,,,,,,,,
2017,07,02,09,45,00,75.2,,,,,,,,,,,,,,